DateTime,F1_A11,F1_S11,BsB_S11,BsG_S11,BsR_S11,BbsB_S11,BbsG_S11,BbsR_S11,BaB_A11,BaG_A11,BaR_A11,T_S11,U_S11,P_S11,T1_A11
2016-05-20T00:00:00Z,0000380,20000600,,,,,,,,,,26.0,02.4,0658.6,34.6
2016-05-20T00:01:00Z,0000380,20000600,,,,,,,,,,26.0,02.3,0658.6,34.6
2016-05-20T00:02:00Z,0000380,20000600,,,,,,,,,,26.0,02.2,0658.6,34.6
2016-05-20T00:03:00Z,0000380,60000600,,,,,,,,,,26.0,02.2,0658.6,34.6
2016-05-20T00:04:00Z,0000380,40000600,0005.48,0004.23,0002.48,0000.13,0000.27,0000.16,0000.36,0000.36,0000.42,26.0,02.3,0659.4,34.6
2016-05-20T00:05:00Z,0000380,00000600,0006.17,0004.28,0002.76,0000.42,0000.21,0000.26,0000.44,0000.47,-000.04,26.1,02.3,0659.4,34.6
2016-05-20T00:06:00Z,0000380,00000600,0007.42,0004.33,0002.93,0001.04,0000.24,0000.45,0000.52,0000.39,0000.48,26.1,02.2,0659.4,34.6
2016-05-20T00:07:00Z,0000380,00000600,0006.02,0004.06,0002.70,0000.62,0000.37,0000.50,0000.29,0000.45,0000.59,26.1,02.2,0659.4,34.6
2016-05-20T00:08:00Z,0000380,00000600,0006.72,0004.60,0002.44,0000.48,0000.33,0000.37,0000.74,0000.39,0000.28,26.1,02.2,0659.4,34.6
2016-05-20T00:09:00Z,0000380,00000600,0006.75,0004.31,0002.73,0000.62,0000.22,0000.88,0000.20,0000.34,0000.04,26.1,02.2,0659.4,34.6
2016-05-20T00:10:00Z,0000380,00000600,0006.78,0004.37,0002.60,0000.83,0000.73,0000.46,0000.64,0000.53,0000.45,26.1,02.3,0659.4,34.6
2016-05-20T00:11:00Z,0000380,00000600,0007.42,0004.21,0002.69,0000.80,0000.73,0000.48,0000.35,0000.41,0000.00,26.1,02.3,0659.4,34.6
2016-05-20T00:12:00Z,0000380,00000600,0006.02,0004.35,0002.64,0000.48,0000.84,0000.58,0000.52,0000.42,0000.66,26.1,02.3,0659.4,34.6
2016-05-20T00:13:00Z,0000380,00000600,0006.50,0003.78,0002.30,0000.74,0000.43,0000.38,0000.45,0000.36,0000.28,26.2,02.3,0659.4,34.6
2016-05-20T00:14:00Z,0000380,00000600,0006.53,0004.63,0002.41,0000.54,0000.29,0000.59,0000.29,0000.44,0000.44,26.2,02.4,0659.4,34.6
2016-05-20T00:15:00Z,0000380,00000600,0006.60,0004.39,0002.66,0000.66,0000.59,0000.59,0000.62,0000.22,0000.14,26.2,02.1,0659.4,34.7
2016-05-20T00:16:00Z,0000380,00000600,0006.97,0004.41,0002.42,0000.50,-000.27,0000.77,0000.24,0000.40,0000.24,26.2,02.2,0659.4,34.7
2016-05-20T00:17:00Z,0000380,00000600,0006.46,0004.37,0001.86,0000.53,0000.37,0000.71,0000.50,0000.44,0000.28,26.2,02.2,0659.4,34.7
2016-05-20T00:18:00Z,0000380,00000600,0005.83,0004.24,0002.68,0000.58,0000.29,0000.22,0000.40,0000.32,0000.31,26.2,02.2,0659.4,34.7
2016-05-20T00:19:00Z,0000380,00000600,0006.27,0004.48,0002.16,0000.62,0000.30,0000.38,0000.42,0000.43,0000.03,26.2,02.1,0659.4,34.7
2016-05-20T00:20:00Z,0000380,00000600,0005.42,0003.61,0002.29,0000.78,0000.14,0000.46,0000.38,0000.20,0000.57,26.2,02.2,0659.5,34.7
2016-05-20T00:21:00Z,0000380,00000600,0006.34,0003.62,0002.47,0000.93,0000.53,0000.27,0000.53,0000.33,0000.31,26.2,02.2,0659.5,34.7
2016-05-20T00:22:00Z,0000380,00000600,0006.09,0003.98,0002.03,0001.30,0000.22,0000.21,0000.25,0000.29,0000.15,26.2,02.1,0659.5,34.7
2016-05-20T00:23:00Z,0000380,00000600,0005.75,0003.80,0002.01,0000.75,0000.43,0000.61,0000.49,0000.54,0000.60,26.2,02.1,0659.5,34.7
2016-05-20T00:24:00Z,0000380,00000600,0006.59,0003.90,0002.31,0000.32,0000.56,0000.19,0000.47,0000.52,0000.07,26.1,02.1,0659.5,34.7
2016-05-20T00:25:00Z,0000380,00000600,0005.52,0003.93,0001.79,0001.20,0000.92,0000.16,0000.27,0000.12,0000.32,26.1,02.0,0659.5,34.7
2016-05-20T00:26:00Z,0000380,00000600,0005.02,0003.76,0002.23,0000.75,-000.22,0000.50,0000.51,0000.53,0000.10,26.1,02.3,0659.5,34.7
2016-05-20T00:27:00Z,0000380,00000600,0005.82,0003.97,0002.25,0000.40,-000.10,0000.53,0000.28,0000.14,0000.32,26.0,02.2,0659.5,34.7
2016-05-20T00:28:00Z,0000380,00000600,0005.82,0003.98,0002.05,0000.85,0000.75,0000.35,0000.45,0000.39,0000.34,26.0,02.2,0659.5,34.7
2016-05-20T00:29:00Z,0000380,00000600,0006.27,0003.64,0002.17,0001.09,0000.48,0000.37,0000.43,0000.44,0000.32,26.0,02.2,0659.5,34.7
2016-05-20T00:30:00Z,0000380,00000600,0004.60,0002.94,0002.54,0000.75,0000.13,0000.51,0000.38,0000.32,0000.25,26.0,02.2,0659.5,34.6
2016-05-20T00:31:00Z,0000380,00000600,0005.69,0002.93,0002.14,0000.34,0000.21,0000.22,0000.26,0000.23,0000.19,26.0,02.3,0659.5,34.6
2016-05-20T00:32:00Z,0000380,00000600,0005.31,0002.92,0001.83,0000.59,0000.49,0000.30,0000.42,0000.35,0000.02,26.0,02.2,0659.5,34.6
2016-05-20T00:33:00Z,0000380,00000600,0006.31,0003.02,0001.92,0000.75,0000.03,0000.56,0000.45,0000.32,0000.29,26.0,02.3,0659.5,34.6
2016-05-20T00:34:00Z,0000380,00000600,0004.49,0003.71,0001.90,0000.56,0000.40,0000.43,0000.34,0000.55,0000.66,26.0,02.3,0659.5,34.6
2016-05-20T00:35:00Z,0000380,00000600,0003.46,0003.17,0002.05,0000.38,0000.43,0000.21,0000.46,0000.24,-000.08,26.0,02.3,0659.5,34.6
2016-05-20T00:36:00Z,0000380,00000600,0004.66,0003.38,0001.74,0000.05,0000.08,0000.26,0000.33,0000.32,0000.63,26.0,02.3,0659.5,34.6
2016-05-20T00:37:00Z,0000380,00000600,0003.96,0003.36,0001.90,0000.46,-000.03,0000.26,0000.36,0000.23,0000.16,26.1,02.3,0659.5,34.6
2016-05-20T00:38:00Z,0000380,00000600,0005.33,0003.16,0002.01,0000.83,0000.91,0000.38,0000.32,0000.57,0000.09,26.1,02.2,0659.5,34.6
2016-05-20T00:39:00Z,0000380,00000600,0005.38,0003.28,0001.65,0000.61,0000.33,0000.37,0000.35,0000.06,0000.14,26.1,02.2,0659.5,34.6
2016-05-20T00:40:00Z,0000380,00000600,0003.82,0001.96,0001.43,0000.75,0000.03,0000.54,0000.14,0000.19,-000.10,26.1,02.2,0659.5,34.6
2016-05-20T00:41:00Z,0000380,00000600,0002.27,0001.79,0000.52,0000.64,-000.14,0000.26,-000.03,0000.23,0000.18,26.1,02.2,0659.5,34.6
2016-05-20T00:42:00Z,0000380,00000600,0001.91,0000.38,0000.14,0000.58,0000.05,0000.13,0000.22,-000.08,0000.33,26.1,02.0,0659.5,34.6
2016-05-20T00:43:00Z,0000380,00000600,0000.97,0000.25,0000.49,0000.08,0000.10,0000.05,-000.10,-000.12,-000.05,26.1,02.1,0659.5,34.6
2016-05-20T00:44:00Z,0000380,00000600,-000.11,0000.19,0000.07,0000.40,0000.29,0000.13,0000.04,0000.25,0000.03,26.2,02.1,0659.5,34.6
2016-05-20T00:45:00Z,0000380,00000600,0000.02,-000.09,-000.21,0000.80,-000.10,-000.18,0000.06,-000.03,-000.11,26.2,02.0,0659.5,34.7
2016-05-20T00:46:00Z,0000380,00000600,0001.35,0000.40,0000.32,0000.05,-000.08,0000.05,0000.10,0000.07,-000.11,26.2,02.0,0659.5,34.7
2016-05-20T00:47:00Z,0000380,00000600,0000.26,0000.51,0000.19,0000.46,0000.11,0000.30,0000.05,0000.02,0000.08,26.1,02.0,0659.5,34.7
2016-05-20T00:48:00Z,0000380,00000600,0000.55,0000.21,0000.43,-000.34,-000.22,0000.10,-000.10,-000.07,0000.25,26.2,02.0,0659.5,34.7
2016-05-20T00:49:00Z,0000380,00000600,0000.29,0000.40,-000.17,0000.32,-000.19,0000.11,0000.13,0000.12,-000.13,26.2,02.0,0659.5,34.7
2016-05-20T00:50:00Z,0000380,00000600,0000.65,0000.12,0000.26,0000.83,-000.32,0000.10,0000.18,0000.07,0000.26,26.2,02.0,0659.5,34.7
2016-05-20T00:51:00Z,0000380,00000600,0000.61,0000.05,-000.03,0000.29,0000.33,-000.08,0000.03,0000.04,-000.05,26.2,02.0,0659.5,34.7
2016-05-20T00:52:00Z,0000380,00000600,0000.41,0000.59,0000.50,0000.43,0000.11,0000.00,0000.15,0000.17,0000.29,26.2,02.0,0659.5,34.7
2016-05-20T00:53:00Z,0000380,00000600,0001.30,0000.32,0000.50,0000.32,-000.05,0000.13,0000.17,-000.08,-000.34,26.2,02.0,0659.5,34.7
2016-05-20T00:54:00Z,0000380,00000600,0001.57,0000.68,0000.42,0000.66,-000.13,0000.14,-000.11,0000.09,-000.02,26.2,01.9,0659.5,34.7
2016-05-20T00:55:00Z,0000380,00000600,0001.27,0000.93,0000.57,0000.35,0000.05,-000.02,0000.29,0000.06,0000.40,26.2,01.9,0659.5,34.7
2016-05-20T00:56:00Z,0000380,00000600,0001.29,0000.76,0000.45,0000.46,-000.10,-000.03,0000.01,0000.09,-000.28,26.2,01.8,0659.5,34.7
2016-05-20T00:57:00Z,0000380,40000600,,,,,,,,,,,,0659.5,34.7
2016-05-20T00:58:00Z,0000380,60000600,,,,,,,,,,26.0,01.9,0658.7,34.7
2016-05-20T00:59:00Z,0000380,20000600,,,,,,,,,,26.0,01.8,0658.7,34.7
2016-05-20T01:00:00Z,0000380,20000600,,,,,,,,,,26.0,01.8,0658.7,34.7
2016-05-20T01:01:00Z,0000380,20000600,,,,,,,,,,26.0,01.7,0658.7,34.7
2016-05-20T01:02:00Z,0000380,20000600,,,,,,,,,,26.0,01.7,0658.7,34.7
2016-05-20T01:03:00Z,0000380,60000600,,,,,,,,,,26.1,01.7,0658.7,34.7
2016-05-20T01:04:00Z,0000380,40000600,0002.24,0001.50,0001.02,-000.06,0000.22,0000.03,0000.04,0000.08,-000.03,26.2,01.5,0659.5,34.7
2016-05-20T01:05:00Z,0000380,00000600,0002.73,0001.15,0000.90,-000.06,0000.65,0000.10,-000.08,0000.08,-000.22,26.3,01.5,0659.6,34.7
2016-05-20T01:06:00Z,0000380,00000600,0002.37,0001.48,0000.93,-000.03,0000.16,0000.24,0000.16,0000.05,0000.58,26.2,01.3,0659.6,34.7
2016-05-20T01:07:00Z,0000380,01000600,0003.05,0001.79,0000.98,-000.19,0000.57,-000.10,0000.23,0000.10,-000.14,26.3,01.3,0659.6,34.7
2016-05-20T01:08:00Z,0000380,01000600,0003.08,0001.73,0000.70,0000.30,0000.37,0000.48,0000.22,0000.17,0000.16,26.3,01.4,0659.6,34.7
2016-05-20T01:09:00Z,0000380,01000600,0002.69,0001.66,0000.82,0000.32,0000.53,-000.02,0000.30,0000.10,-000.14,26.3,01.3,0659.6,34.7
2016-05-20T01:10:00Z,0000380,01000600,0003.23,0001.63,0001.10,0000.48,0000.14,0000.48,-000.06,0000.27,0000.11,26.3,01.3,0659.6,34.7
2016-05-20T01:11:00Z,0000380,01000600,0002.57,0000.85,0000.65,0001.12,0000.43,0000.40,0000.40,0000.09,-000.17,26.3,01.2,0659.6,34.7
2016-05-20T01:12:00Z,0000380,01000600,0003.09,0001.34,0001.00,-000.11,0000.62,0000.06,0000.00,0000.22,0000.64,26.3,01.2,0659.6,34.7
2016-05-20T01:13:00Z,0000380,01000600,0002.19,0000.83,0000.64,0000.45,0000.40,0000.35,0000.12,0000.20,-000.20,26.3,01.3,0659.6,34.7
2016-05-20T01:14:00Z,0000380,01000600,0003.33,0001.46,0000.83,0000.35,0000.29,0000.18,0000.22,0000.05,0000.25,26.3,01.1,0659.6,34.7
2016-05-20T01:15:00Z,0000380,01000600,0002.81,0001.29,0001.28,0000.18,0000.37,-000.05,0000.15,0000.23,-000.02,26.3,01.1,0659.6,34.7
2016-05-20T01:16:00Z,0000380,01000600,0002.57,0001.73,0000.98,0001.01,0000.27,0000.14,0000.16,0000.13,0000.38,26.3,01.1,0659.6,34.7
2016-05-20T01:17:00Z,0000380,01000600,0001.76,0000.17,0000.51,-000.51,0000.37,-000.11,0000.18,0000.03,-000.06,26.3,01.1,0659.6,34.7
2016-05-20T01:18:00Z,0000380,01000600,0002.51,0000.97,0000.58,0000.74,0000.27,-000.06,0000.06,0000.00,0000.08,26.3,01.1,0659.6,34.7
2016-05-20T01:19:00Z,0000380,01000600,0001.88,0000.45,0000.81,-000.58,-000.08,0000.11,0000.15,0000.06,-000.06,26.3,01.1,0659.6,34.7
2016-05-20T01:20:00Z,0000380,01000600,0002.22,0000.80,0000.31,0000.53,-000.35,0000.14,0000.01,-000.01,-000.14,26.3,01.0,0659.6,34.7
2016-05-20T01:21:00Z,0000380,01000600,0001.94,0000.66,0001.04,0000.06,0000.62,-000.22,0000.07,0000.30,0000.35,26.3,00.9,0659.7,34.7
2016-05-20T01:22:00Z,0000380,01000600,0001.59,0000.93,0000.82,0000.45,-000.03,0000.30,-000.09,-000.09,-000.17,26.3,00.9,0659.6,34.7
2016-05-20T01:23:00Z,0000380,01000600,0001.81,0000.86,0000.25,-000.21,0000.64,-000.46,0000.25,0000.17,0000.16,26.3,00.8,0659.7,34.7
2016-05-20T01:24:00Z,0000380,01000600,0002.76,0000.78,0000.90,0000.32,0000.38,0000.43,-000.06,0000.16,0000.03,26.3,00.8,0659.6,34.7
2016-05-20T01:25:00Z,0000380,01000600,0002.14,0001.20,0000.82,0000.08,0000.08,0000.30,0000.29,0000.13,0000.06,26.3,00.8,0659.7,34.7
2016-05-20T01:26:00Z,0000380,01000600,0002.04,0000.62,0000.45,0000.00,-000.03,0000.14,-000.03,-000.03,-000.22,26.3,00.7,0659.7,34.7
2016-05-20T01:27:00Z,0000380,01010600,0003.08,0000.82,0000.39,0000.45,0000.08,0000.38,0000.13,0000.18,0000.33,26.3,00.7,0659.7,34.7
2016-05-20T01:28:00Z,0000380,01000600,0001.46,0000.44,0000.70,0000.34,0000.29,0000.02,0000.23,-000.02,0000.26,26.3,00.6,0659.7,34.7
2016-05-20T01:29:00Z,0000380,01000600,0001.16,0000.50,0000.61,0000.34,0000.38,0000.08,-000.07,0000.08,-000.20,26.3,00.6,0659.6,34.7
2016-05-20T01:30:00Z,0000380,01000600,0001.32,0000.37,0001.00,0000.48,0000.08,-000.11,0000.13,0000.19,-000.19,26.3,00.6,0659.7,34.7
2016-05-20T01:31:00Z,0000380,01000600,0000.77,-000.25,0000.28,0000.37,0000.29,-000.30,-000.04,-000.24,0000.01,26.2,00.6,0659.7,34.7
2016-05-20T01:32:00Z,0000380,01000600,0001.19,0000.09,0000.16,0000.82,-000.19,0000.03,0000.20,0000.16,0000.08,26.2,00.7,0659.7,34.7
2016-05-20T01:33:00Z,0000380,01000600,0001.11,0000.58,-000.04,0000.53,0000.40,0000.02,0000.04,0000.06,0000.11,26.2,00.6,0659.7,34.7
2016-05-20T01:34:00Z,0000380,01000600,0001.82,0001.00,0000.46,0000.11,0000.54,0000.19,0000.08,0000.08,0000.14,26.2,00.6,0659.7,34.7
2016-05-20T01:35:00Z,0000380,01000600,0002.58,0000.23,0000.44,0000.42,0000.14,0000.06,-000.07,-000.04,-000.25,26.2,00.6,0659.7,34.7
2016-05-20T01:36:00Z,0000380,01000600,0000.82,0000.81,0000.50,0000.19,0000.24,-000.50,0000.19,0000.08,0000.42,26.3,00.7,0659.7,34.7
2016-05-20T01:37:00Z,0000380,01000600,0001.14,0000.25,0000.04,-000.62,0000.10,0000.14,0000.08,0000.06,-000.09,26.3,00.6,0659.7,34.7
2016-05-20T01:38:00Z,0000380,01000600,0001.60,0000.30,0000.71,0000.05,0000.59,-000.02,-000.02,0000.04,-000.32,26.3,00.6,0659.7,34.7
2016-05-20T01:39:00Z,0000380,01000600,0001.27,0000.07,0000.07,-000.16,0000.11,-000.16,0000.09,0000.15,0000.34,26.3,00.6,0659.7,34.7
2016-05-20T01:40:00Z,0000380,01000600,0001.03,-000.05,0000.56,0000.18,0000.29,0000.30,-000.02,0000.14,0000.02,26.3,00.6,0659.7,34.7
2016-05-20T01:41:00Z,0000380,01000600,0001.93,0000.59,0000.21,0000.30,0000.11,-000.22,0000.12,-000.02,0000.11,26.3,00.5,0659.7,34.7
2016-05-20T01:42:00Z,0000380,01000600,0001.69,0000.49,0000.82,-000.03,0000.13,0000.24,0000.10,-000.01,0000.12,26.3,00.4,0659.7,34.7
2016-05-20T01:43:00Z,0000380,01000600,0001.17,0001.08,0000.88,0000.14,-000.02,0000.02,0000.03,0000.01,-000.09,26.3,00.5,0659.7,34.7
2016-05-20T01:44:00Z,0000380,01000600,0001.49,0000.70,0000.22,-000.02,0000.06,0000.40,-000.01,0000.27,0000.19,26.3,00.5,0659.7,34.7
2016-05-20T01:45:00Z,0000380,01000600,0000.87,0000.46,0000.73,-000.32,-000.06,0000.02,0000.37,0000.07,0000.08,26.3,00.4,0659.7,34.7
2016-05-20T01:46:00Z,0000380,01000600,0001.24,0000.21,0000.09,0000.35,-000.11,0000.21,-000.02,-000.07,0000.11,26.3,00.4,0659.7,34.7
2016-05-20T01:47:00Z,0000380,01000600,0000.35,0000.72,0000.38,0000.16,0000.13,0000.18,0000.05,0000.14,-000.36,26.3,00.3,0659.7,34.7
2016-05-20T01:48:00Z,0000380,01000600,0001.11,0000.45,0000.23,-000.06,0000.32,0000.08,-000.01,-000.01,0000.20,26.3,00.4,0659.7,34.7
2016-05-20T01:49:00Z,0000380,01000600,0001.34,0000.42,0000.45,0000.46,0000.38,0000.02,0000.06,0000.14,0000.02,26.3,00.4,0659.7,34.7
2016-05-20T01:50:00Z,0000380,01000600,0000.99,0000.53,0000.25,0000.21,0000.56,0000.61,0000.29,0000.06,0000.15,26.3,00.4,0659.7,34.7
2016-05-20T01:51:00Z,0000380,01000600,0002.21,0000.98,0000.33,0000.03,0000.41,0000.13,0000.02,-000.13,-000.09,26.3,00.3,0659.7,34.7
2016-05-20T01:52:00Z,0000380,01000600,0001.80,0001.19,0000.35,0000.43,0000.22,-000.16,-000.04,0000.08,0000.17,26.3,00.3,0659.7,34.7
2016-05-20T01:53:00Z,0000380,01000600,0001.76,0000.27,0000.77,0000.59,0000.26,0000.30,0000.08,0000.14,-000.32,26.3,00.3,0659.7,34.7
2016-05-20T01:54:00Z,0000380,01000600,0001.58,0000.19,0000.54,-000.08,0000.14,0000.05,0000.19,0000.17,0000.36,26.3,00.3,0659.7,34.7
2016-05-20T01:55:00Z,0000380,01000600,0000.94,0000.37,0000.63,0000.46,0000.02,-000.08,-000.05,0000.06,-000.29,26.3,00.3,0659.7,34.7
2016-05-20T01:56:00Z,0000380,01000600,0000.34,0000.64,0000.00,-000.19,0000.27,0000.00,-000.05,0000.07,0000.49,26.3,00.3,0659.6,34.7
2016-05-20T01:57:00Z,0000380,41000600,,,,,,,,,,,,0659.6,34.7
2016-05-20T01:58:00Z,0000380,61000600,,,,,,,,,,26.2,00.7,0658.7,34.7
2016-05-20T01:59:00Z,0000380,21000600,,,,,,,,,,26.2,00.6,0658.7,34.7
2016-05-20T02:00:00Z,0000380,21000600,,,,,,,,,,26.2,00.4,0658.7,34.7
2016-05-20T02:01:00Z,0000380,21000600,,,,,,,,,,26.2,00.4,0658.7,34.7
2016-05-20T02:02:00Z,0000380,21000600,,,,,,,,,,26.2,00.4,0658.7,34.7
2016-05-20T02:03:00Z,0000380,61000600,,,,,,,,,,26.2,00.4,0658.7,34.7
2016-05-20T02:04:00Z,0000380,41000600,0000.92,0000.41,-000.03,-000.72,-000.59,0000.05,0000.23,0000.14,0000.08,26.3,00.3,0659.5,34.7
2016-05-20T02:05:00Z,0000380,01000600,0000.67,0000.69,0000.33,0000.48,0000.24,-000.14,0000.01,0000.15,0000.15,26.3,00.3,0659.6,34.7
2016-05-20T02:06:00Z,0000380,01000600,0001.19,0000.51,0000.29,0000.26,0000.22,0000.30,0000.17,0000.08,0000.02,26.3,00.3,0659.5,34.7
2016-05-20T02:07:00Z,0000380,01000600,0000.41,0000.89,0000.50,0000.05,0000.21,0000.26,0000.01,-000.03,0000.20,26.3,00.3,0659.5,34.7
2016-05-20T02:08:00Z,0000380,01000600,0000.80,0000.57,0000.18,0000.93,0000.08,-000.14,0000.16,0000.15,-000.09,26.3,00.3,0659.5,34.7
2016-05-20T02:09:00Z,0000380,01000600,0000.47,0000.36,0000.57,0000.06,0000.10,0000.19,0000.01,-000.12,0000.10,26.3,00.3,0659.5,34.7
2016-05-20T02:10:00Z,0000380,01000600,0000.48,0000.70,0000.31,0000.70,0000.19,-000.08,0000.15,0000.10,0000.20,26.3,00.3,0659.5,34.7
2016-05-20T02:11:00Z,0000380,01000600,0001.68,0001.08,-000.11,0000.19,0000.02,-000.11,0000.15,0000.24,-000.12,26.3,00.3,0659.5,34.7
2016-05-20T02:12:00Z,0000380,01000600,0001.16,0000.41,-000.09,0000.54,0000.16,-000.56,-000.05,-000.20,-000.22,26.3,00.3,0659.5,34.7
2016-05-20T02:13:00Z,0000380,01000600,0001.03,0000.40,0000.03,0000.54,-000.35,-000.14,0000.28,0000.15,0000.29,26.3,00.3,0659.5,34.7
2016-05-20T02:14:00Z,0000380,01000600,0000.68,0000.20,0000.03,0000.10,-000.10,0000.18,-000.07,0000.23,0000.27,26.3,00.3,0659.5,34.7
2016-05-20T02:15:00Z,0000380,01000600,0001.07,0000.31,0000.14,0000.05,0000.08,0000.02,-000.01,0000.25,-000.07,26.3,00.3,0659.5,34.7
2016-05-20T02:16:00Z,0000380,01000600,0000.65,0000.11,0000.09,0000.10,-000.03,-000.18,0000.18,-000.12,-000.06,26.3,00.3,0659.5,34.7
2016-05-20T02:17:00Z,0000380,01000600,0000.21,0000.09,0000.59,0000.18,-000.06,0000.24,0000.07,0000.16,0000.22,26.3,00.3,0659.4,34.7
2016-05-20T02:18:00Z,0000380,01000600,0000.44,0000.84,0000.24,0000.50,-000.10,-000.37,0000.15,0000.00,-000.31,26.3,00.3,0659.4,34.7
2016-05-20T02:19:00Z,0000380,01000600,0001.18,0001.05,0000.43,0001.07,-000.18,0000.26,-000.01,-000.08,0000.21,26.3,00.3,0659.4,34.7
2016-05-20T02:20:00Z,0000380,01000600,0000.11,0000.18,0000.21,0000.30,-000.13,0000.11,0000.14,0000.13,-000.06,26.3,00.3,0659.4,34.7
2016-05-20T02:21:00Z,0000380,01000600,0000.78,0000.58,-000.10,-000.08,0000.14,-000.19,0000.03,0000.11,0000.22,26.3,00.3,0659.4,34.7
2016-05-20T02:22:00Z,0000380,01000600,0000.47,0000.09,0000.39,-000.03,-000.06,-000.16,0000.20,0000.05,0000.17,26.3,00.3,0659.4,34.7
2016-05-20T02:23:00Z,0000380,01000600,0001.13,0000.80,0000.38,0000.40,-000.08,0000.03,0000.01,-000.00,-000.20,26.3,00.3,0659.4,34.7
2016-05-20T02:24:00Z,0000380,01000600,0000.10,0000.45,0000.08,0000.21,0000.16,0000.10,0000.05,0000.13,0000.44,26.3,00.3,0659.4,34.7
2016-05-20T02:25:00Z,0000380,01000600,0000.65,0000.53,0000.15,-000.48,0000.05,0000.21,0000.29,0000.18,0000.15,26.3,00.3,0659.4,34.7
2016-05-20T02:26:00Z,0000380,01000600,0000.00,-000.06,0000.25,0000.21,0000.61,0000.05,-000.05,0000.12,-000.52,26.3,00.3,0659.4,34.7
2016-05-20T02:27:00Z,0000380,01000600,-000.55,0000.48,-000.03,-000.21,-000.61,0000.11,0000.12,0000.07,0000.34,26.3,00.3,0659.4,34.7
2016-05-20T02:28:00Z,0000380,01000600,0000.45,0000.63,0000.06,-000.13,0000.03,-000.32,-000.13,-000.13,0000.25,26.3,00.3,0659.4,34.7
2016-05-20T02:29:00Z,0000380,01000600,0001.10,0000.77,0000.26,0000.29,0000.32,-000.24,0000.31,0000.03,-000.04,26.3,00.3,0659.4,34.7
2016-05-20T02:30:00Z,0000380,01000600,0001.18,0000.80,0000.11,0000.37,0000.62,-000.14,-000.16,0000.01,-000.09,26.3,00.3,0659.4,34.7
2016-05-20T02:31:00Z,0000380,01000600,0000.63,0000.26,-000.19,0000.66,-000.10,0000.13,0000.23,0000.09,-000.18,26.3,00.3,0659.4,34.7
2016-05-20T02:32:00Z,0000380,01000600,0001.35,0000.48,0000.62,-000.05,0000.14,0000.27,-000.04,0000.07,-000.01,26.3,00.2,0659.4,34.7
2016-05-20T02:33:00Z,0000380,01000600,0000.72,0000.98,0000.16,-001.01,0000.30,0000.00,0000.02,0000.11,0000.19,26.3,00.2,0659.4,34.7
2016-05-20T02:34:00Z,0000380,01000600,0000.28,-000.07,0000.44,0000.37,0000.02,0000.08,0000.19,-000.00,0000.07,26.3,00.2,0659.4,34.7
2016-05-20T02:35:00Z,0000380,01000600,0001.26,0000.97,0000.49,0000.14,-000.18,-000.11,-000.04,0000.22,0000.18,26.3,00.3,0659.4,34.7
2016-05-20T02:36:00Z,0000380,01000600,0000.04,0000.40,0000.03,-000.22,0000.61,0000.10,0000.18,-000.17,-000.11,26.3,00.3,0659.3,34.7
2016-05-20T02:37:00Z,0000380,01000600,0000.43,0000.49,0000.57,0000.03,-000.19,0000.00,0000.03,0000.02,0000.22,26.3,00.2,0659.3,34.7
2016-05-20T02:38:00Z,0000380,01000600,0000.20,0000.52,0000.45,0000.35,-000.02,0000.00,0000.04,0000.10,-000.04,26.3,00.3,0659.3,34.7
2016-05-20T02:39:00Z,0000380,01000600,0001.81,0000.89,-000.07,-000.03,0000.10,0000.02,0000.04,0000.05,-000.09,26.3,00.2,0659.3,34.7
2016-05-20T02:40:00Z,0000380,01000600,0000.40,0000.61,0000.34,0000.29,-000.43,-000.02,0000.06,0000.08,0000.25,26.3,00.2,0659.2,34.7
2016-05-20T02:41:00Z,0000380,01000600,0000.53,0000.36,0000.12,-000.27,0000.02,0000.03,0000.19,0000.15,-000.18,26.3,00.2,0659.2,34.7
2016-05-20T02:42:00Z,0000380,01000600,0001.09,0000.70,0000.56,0000.21,-000.14,0000.18,-000.12,-000.01,-000.13,26.3,00.2,0659.2,34.7
2016-05-20T02:43:00Z,0000380,01000600,0000.85,0000.07,0000.29,-000.16,0000.02,-000.06,0000.19,-000.03,0000.19,26.3,00.2,0659.2,34.7
2016-05-20T02:44:00Z,0000380,01000600,0001.22,0000.47,-000.12,0000.35,0000.06,0000.16,-000.00,0000.07,-000.14,26.3,00.2,0659.2,34.7
2016-05-20T02:45:00Z,0000380,01000600,0001.28,0001.13,0000.29,-000.27,-000.19,0000.06,0000.14,0000.12,0000.25,26.3,00.2,0659.2,34.7
2016-05-20T02:46:00Z,0000380,01000600,0000.29,0000.16,0000.42,-000.38,-000.02,0000.03,0000.21,0000.20,0000.02,26.3,00.2,0659.2,34.7
2016-05-20T02:47:00Z,0000380,01000600,0000.90,0000.74,0000.33,0000.50,-000.03,0000.00,-000.02,-000.02,0000.28,26.3,00.2,0659.2,34.7
2016-05-20T02:48:00Z,0000380,01000600,0000.25,0000.54,0000.00,0000.77,-000.10,-000.43,0000.09,0000.14,-000.08,26.3,00.2,0659.2,34.7
2016-05-20T02:49:00Z,0000380,01000600,0001.17,0000.24,-000.24,0000.35,-000.26,0000.14,0000.16,0000.05,0000.18,26.3,00.3,0659.2,34.7
2016-05-20T02:50:00Z,0000380,01000600,0000.60,0000.75,0000.38,-000.43,0000.08,0000.05,0000.11,0000.04,0000.05,26.3,00.3,0659.2,34.7
2016-05-20T02:51:00Z,0000380,01000600,0000.41,0000.32,0000.05,0000.19,0000.00,-000.27,0000.05,0000.15,-000.15,26.3,00.3,0659.2,34.7
2016-05-20T02:52:00Z,0000380,01000600,0000.63,0000.80,-000.04,-000.11,0000.10,-000.11,0000.12,-000.10,0000.42,26.3,00.3,0659.2,34.7
2016-05-20T02:53:00Z,0000380,01000600,0001.67,0000.33,0000.37,0000.29,0000.03,0000.58,-000.08,0000.11,-000.46,26.3,00.3,0659.2,34.7
2016-05-20T02:54:00Z,0000380,01000600,0000.25,0000.15,0000.18,0000.75,-000.11,-000.08,0000.07,0000.17,0000.12,26.3,00.3,0659.2,34.7
2016-05-20T02:55:00Z,0000380,01000600,0000.03,-000.18,0000.33,0000.19,-000.06,-000.05,-000.00,-000.11,0000.27,26.3,00.3,0659.2,34.7
2016-05-20T02:56:00Z,0000380,01000600,-001.51,-000.41,0000.72,-000.27,-000.19,0000.00,0000.05,0000.21,-000.23,26.3,00.2,0659.2,34.7
2016-05-20T02:57:00Z,0000380,41000600,,,,,,,,,,,,0659.2,34.7
2016-05-20T02:58:00Z,0000380,61000600,,,,,,,,,,26.2,00.4,0658.3,34.7
2016-05-20T02:59:00Z,0000380,21000600,,,,,,,,,,26.2,00.3,0658.3,34.7
2016-05-20T03:00:00Z,0000380,21000600,,,,,,,,,,26.2,00.3,0658.3,34.7
2016-05-20T03:01:00Z,0000380,21000600,,,,,,,,,,26.2,00.3,0658.3,34.7
2016-05-20T03:02:00Z,0000380,21000600,,,,,,,,,,26.2,00.3,0658.3,34.7
2016-05-20T03:03:00Z,0000380,61000600,,,,,,,,,,26.2,00.3,0658.3,34.7
2016-05-20T03:04:00Z,0000380,41000600,-000.13,0000.25,0000.40,-000.27,-000.13,0000.14,0000.20,-000.09,-000.03,26.3,00.3,0659.1,34.7
2016-05-20T03:05:00Z,0000380,01000600,0000.10,-000.32,0001.14,0000.32,-000.30,0000.06,0000.13,0000.24,0000.44,26.3,00.3,0659.2,34.7
2016-05-20T03:06:00Z,0000380,01000600,0000.04,0000.73,-000.16,-000.32,-000.18,-000.05,-000.04,-000.02,0000.19,26.3,00.2,0659.1,34.7
2016-05-20T03:07:00Z,0000380,01000600,0001.12,0000.66,0000.49,0000.00,0000.08,0000.14,-000.02,-000.13,-000.47,26.3,00.2,0659.1,34.7
2016-05-20T03:08:00Z,0000380,01000600,0000.51,-000.19,0000.24,0000.85,-000.22,0000.27,0000.12,0000.20,0000.40,26.3,00.3,0659.1,34.7
2016-05-20T03:09:00Z,0000380,01000600,0001.03,0000.07,0000.70,-000.18,0000.06,0000.10,-000.03,0000.11,0000.02,26.3,00.3,0659.1,34.7
2016-05-20T03:10:00Z,0000380,01000600,0000.24,0000.13,0000.40,0000.43,0000.06,-000.05,0000.10,-000.02,-000.11,26.3,00.3,0659.1,34.7
2016-05-20T03:11:00Z,0000380,01000600,0000.21,-000.26,0000.29,0000.29,-000.06,0000.02,0000.07,0000.02,0000.18,26.3,00.2,0659.1,34.7
2016-05-20T03:12:00Z,0000380,01000600,-000.58,0000.74,-000.09,0000.54,-000.03,0000.06,0000.20,0000.19,0000.05,26.3,00.4,0659.1,34.7